Flag for South Africa Weather past 2 weeks in Port Elizabeth, South Africa

Now
55 °F

Passing clouds.


Feels Like: 51 °F
Forecast: 48 / 63 °F
Wind: 17 mph from West

Location: Port Elizabeth Airport

Current Time: Jul 29, 2015 at 9:27:09 AM

Latest Report: Jul 29, 2015 at 9:00 AM


Visibility: N/A

Pressure: 29.89 "Hg

Humidity: 77%

Dew point: 48 °F

Location of Port ElizabethLocation

Historic Weather in Port Elizabeth — Graph

°F

Port Elizabeth temperature yesterday

Maximum temperature yesterday: 70 °F (at 4:00 PM)
Minimum temperature yesterday: 43 °F (at 1:00 AM)
Average temperature yesterday: 52 °F

Past Weeks' High & Low Weather Summary

 TemperatureHumidityPressure
High70 °F (Jul 28, 4:00 PM)100% (Jul 28, 8:00 AM)30.51 "Hg (Jul 28, 8:00 AM)
Low39 °F (Jul 15, 8:00 AM)40% (Jul 17, 1:00 PM)29.80 "Hg (Jul 17, 2:00 PM)
Average55 °F77%30.14 "Hg
* Reported Jul 14 8:00 AM — Jul 29 8:00 AM, Port Elizabeth, Weather by CustomWeather, © 2015

Note: Actual official high and low records may vary slightly from our data, if they occured in-between our weather recording intervals... More about our weather records

Advertising

Port Elizabeth weather history for previous 24 hours

 ConditionsComfort  
Time TempWeatherWind HumidityBarometerVisibility
8:00 AM
Wed, Jul 29
54 °FPassing clouds.15 mph82%29.89 "HgN/A
7:00 AM54 °FPassing clouds.15 mph77%29.89 "HgN/A
6:00 AM54 °FPassing clouds.18 mph77%29.86 "HgN/A
5:00 AM54 °FPassing clouds.18 mph82%29.86 "HgN/A
4:00 AM54 °FPassing clouds.15 mph82%29.86 "HgN/A
3:00 AM54 °FClear.16 mph88%29.86 "Hg10 mi
2:00 AM54 °FClear.16 mph88%29.86 "Hg10 mi
1:00 AM55 °FClear.18 mph82%29.86 "Hg10 mi
12:00 AM54 °FClear.18 mph88%29.89 "Hg10 mi
11:00 PM
Tue, Jul 28
54 °FClear.15 mph88%29.92 "Hg10 mi
10:00 PM54 °FPassing clouds.13 mph88%29.92 "HgN/A
9:00 PM55 °FPassing clouds.14 mph88%29.92 "HgN/A
8:00 PM55 °FPassing clouds.12 mph88%29.92 "HgN/A
7:00 PM55 °FClear.12 mph82%29.92 "Hg10 mi
6:00 PM55 °FClear.10 mph82%29.92 "Hg10 mi
5:00 PM61 °FClear.13 mph63%29.89 "Hg10 mi
4:00 PM70 °FPassing clouds.5 mph43%29.89 "HgN/A
3:00 PMN/ASunny.N/AN/AN/A10 mi
2:00 PMN/ASunny.N/AN/AN/A10 mi
1:00 PMN/ASunny.N/AN/AN/A10 mi
12:00 PM59 °FCool.6 mph68%N/AN/A
11:00 AM57 °FPassing clouds.8 mph67%30.04 "HgN/A
10:00 AM55 °FSunny.7 mph67%30.04 "Hg10 mi
9:00 AM52 °FSunny.2 mph82%30.07 "Hg10 mi
Weather by CustomWeather, © 2015

See weather overviewHow to use our weather pages